Location: Arthez
(43.0833°N, 0.2500°W)
Time: 02:46:04
(UTC+00:00)

Cosmos 2344 - Pass Details

Date: 23 October 2021
Orbit: 1233 x 3009 km, 63.3° (Epoch: 29 November)

Event Time Altitude Azimuth Distance (km) Brightness Sun altitude
Rises 18:49:20 0° 323° (NW) 4,530 7.0 -19.6°
Reaches altitude 10° 18:51:57 10° 325° (NW) 3,688 6.5 -20.1°
Maximum altitude 19:01:14 77° 52° (NE) 1,925 4.3 -21.8°
Enters shadow 19:11:50 17° 137° (SE) 4,323 5.9 -23.7°
